Stations météo

Publicité
Bournemouth Airport, Grande-Bretagne (3862): Température de l'air & dewpoint: 14.09.2019 04:00:00 - 20.09.2019 04:00:00 (BST)Bournemouth Airport, Grande-Bretagne (3862): Température de l'air -20cm & Température de l'air -100cm: 14.09.2019 04:00:00 - 20.09.2019 04:00:00 (BST)Bournemouth Airport, Grande-Bretagne (3862): Vitesse du vent: 14.09.2019 04:00:00 - 20.09.2019 04:00:00 (BST)Bournemouth Airport, Grande-Bretagne (3862): Direction du vent: 14.09.2019 04:00:00 - 20.09.2019 04:00:00 (BST)Bournemouth Airport, Grande-Bretagne (3862): reduced air pressure: 14.09.2019 04:00:00 - 20.09.2019 04:00:00 (BST)Bournemouth Airport, Grande-Bretagne (3862): visibility: 14.09.2019 04:00:00 - 20.09.2019 04:00:00 (BST)Bournemouth Airport, Grande-Bretagne (3862): Ensoleillement: 14.09.2019 04:00:00 - 20.09.2019 04:00:00 (BST)Bournemouth Airport, Grande-Bretagne (3862): Quantités de précipitations: 14.09.2019 04:00:00 - 20.09.2019 04:00:00 (BST)
Date & Time tt [°C] td [°C] tt -20cm [°C] tt -100cm [°C] ff [km/h] ff [knt] dd ppp [hPa] vv [km] sd [min] rr [mm]
20.09.2019 04:00:00 10,7 9,7 - - 13 7 ENE 1027,5 30 0 0,0
20.09.2019 03:00:00 10,5 9,1 - - 13 7 ENE 1028,0 27 0 0,0
20.09.2019 02:00:00 10,6 9,4 - - 13 7 ENE 1028,4 30 0 0,0
20.09.2019 01:00:00 10,4 9,8 - - 11 6 ENE 1028,7 22 - 0,0
20.09.2019 00:00:00 9,8 9,1 - - 9 5 ENE 1029,2 20 0 0,0
19.09.2019 23:00:00 9,6 8,6 - - 5 3 NE 1029,5 25 0 0,0
19.09.2019 22:00:00 10,3 8,8 - - 8 4 ENE 1029,5 10 0 0,0
19.09.2019 21:00:00 11,7 9,9 - - 8 4 ENE 1029,4 10 0 0,0
19.09.2019 20:00:00 13,4 9,5 - - 9 5 E 1029,3 35 0 0,0
19.09.2019 19:00:00 17,1 11,5 - - 5 3 SSE 1029,2 35 54 0,0
19.09.2019 18:00:00 17,9 11,4 - - 11 6 SSE 1029,3 10 60 0,0
19.09.2019 17:00:00 18,4 10,6 - - 13 7 S 1029,4 50 60 0,0
19.09.2019 16:00:00 19,0 10,3 - - 15 8 SSE 1029,6 45 60 0,0
19.09.2019 15:00:00 19,5 10,4 - - 16 9 SSE 1030,1 10 60 0,0
19.09.2019 14:00:00 20,4 9,0 - - 11 6 ESE 1030,5 50 60 0,0
19.09.2019 13:00:00 19,4 8,5 - - 9 5 SE 1031,2 10 60 0,0
19.09.2019 12:00:00 18,8 9,0 - - 11 6 E 1031,3 10 60 0,0
19.09.2019 11:00:00 17,8 8,0 - - 13 7 E 1031,6 10 60 0,0
19.09.2019 10:00:00 15,4 9,9 16,4 15,9 8 4 NE 1031,8 10 60 0,0
19.09.2019 09:00:00 12,1 9,6 - - 4 2 N 1031,6 10 54 0,0
19.09.2019 08:00:00 6,7 6,0 - - 4 2 N 1031,1 10 0 0,0
19.09.2019 07:00:00 4,9 4,1 - - 4 2 NW 1030,8 10 0 0,0
19.09.2019 06:00:00 4,9 4,0 - - 4 2 NW 1030,6 24 0 0,0
19.09.2019 05:00:00 6,0 5,2 - - 2 1 NW 1030,4 25 0 0,0
19.09.2019 04:00:00 5,5 4,4 - - 4 2 W 1030,6 19 0 0,0
19.09.2019 03:00:00 7,0 5,7 - - 4 2 N 1030,5 30 0 0,0
19.09.2019 02:00:00 7,1 5,5 - - 4 2 NNW 1030,6 35 0 0,0
19.09.2019 01:00:00 7,2 5,0 - - 4 2 N 1030,5 30 - 0,0
19.09.2019 00:00:00 7,8 5,4 - - 4 2 N 1030,3 35 0 0,0
18.09.2019 23:00:00 8,4 5,9 - - 5 3 NNW 1030,1 30 0 0,0
18.09.2019 22:00:00 9,6 6,5 - - 4 2 NNW 1029,9 10 0 0,0
18.09.2019 21:00:00 11,5 7,3 - - 4 2 N 1029,5 10 0 0,0
18.09.2019 20:00:00 14,4 7,1 - - 5 3 NE 1029,0 10 6 0,0
18.09.2019 19:00:00 16,7 6,4 - - 9 5 NE 1028,5 50 60 0,0
18.09.2019 18:00:00 19,0 6,1 - - 13 7 NE 1028,4 10 60 0,0
18.09.2019 17:00:00 19,6 5,2 - - 16 9 NE 1028,4 55 60 0,0
18.09.2019 16:00:00 19,6 5,2 - - 13 7 ENE 1028,7 10 60 0,0
18.09.2019 15:00:00 19,4 5,7 - - 15 8 ENE 1029,0 10 60 0,0
18.09.2019 14:00:00 19,3 6,1 - - 15 8 ENE 1029,3 50 60 0,0
18.09.2019 13:00:00 18,6 5,8 - - 18 10 ENE 1029,6 10 60 0,0
18.09.2019 12:00:00 17,8 4,9 - - 16 9 E 1029,9 10 60 0,0
18.09.2019 11:00:00 16,3 5,4 - - 15 8 NE 1030,1 55 60 0,0
18.09.2019 10:00:00 13,8 7,4 16,7 16,0 13 7 NE 1030,1 10 60 0,0
18.09.2019 09:00:00 11,1 7,0 - - 11 6 NE 1029,7 10 54 0,0
18.09.2019 08:00:00 7,4 6,2 - - 8 4 N 1029,6 28 0 0,0
18.09.2019 07:00:00 6,3 4,8 - - 5 3 N 1029,1 10 0 0,0
18.09.2019 06:00:00 6,8 5,2 - - 8 4 N 1028,9 10 0 0,0
18.09.2019 05:00:00 6,5 4,3 - - 4 2 NNE 1028,3 35 0 0,0
18.09.2019 04:00:00 8,7 6,2 - - 5 3 NE 1028,3 40 0 0,0
18.09.2019 03:00:00 7,5 4,3 - - 4 2 NNW 1028,2 35 0 0,0
18.09.2019 02:00:00 9,0 6,6 - - 11 6 ENE 1028,1 45 0 0,0
18.09.2019 01:00:00 9,5 6,6 - - 9 5 NE 1027,8 45 - 0,0
18.09.2019 00:00:00 11,0 7,2 - - 5 3 ENE 1027,3 50 0 0,0
17.09.2019 23:00:00 11,9 7,0 - - 5 3 ENE 1027,3 50 0 0,0
17.09.2019 22:00:00 11,3 6,5 - - 8 4 NNE 1026,6 10 0 0,0
17.09.2019 21:00:00 12,8 6,4 - - 9 5 NNE 1026,0 10 0 0,0
17.09.2019 20:00:00 13,8 6,5 - - 9 5 NNE 1025,6 10 6 0,0
17.09.2019 19:00:00 17,1 7,0 - - 13 7 NE 1025,3 10 60 0,0
17.09.2019 18:00:00 19,0 7,0 - - 16 9 NE 1024,7 10 60 0,0
17.09.2019 17:00:00 19,9 6,9 - - 18 10 NE 1024,6 10 60 0,0
17.09.2019 16:00:00 20,1 7,5 - - 16 9 NNE 1024,9 10 60 0,0
17.09.2019 15:00:00 19,5 7,7 - - 16 9 NNE 1024,8 10 60 0,0
17.09.2019 14:00:00 19,2 8,3 - - 21 11 NNE 1025,1 50 60 0,0
17.09.2019 13:00:00 18,2 7,8 - - 21 11 NNE 1025,2 10 60 0,0
17.09.2019 12:00:00 17,3 7,7 - - 18 10 NNE 1025,3 10 60 0,0
17.09.2019 11:00:00 16,0 8,7 - - 24 13 NNE 1025,7 55 60 0,0
17.09.2019 10:00:00 14,7 8,1 17,2 15,9 26 14 NNE 1025,7 10 60 0,0
17.09.2019 09:00:00 13,3 8,0 - - 22 12 N 1025,6 10 60 0,0
17.09.2019 08:00:00 11,9 8,5 - - 15 8 NNE 1025,0 10 6 0,0
17.09.2019 07:00:00 10,9 8,4 - - 9 5 NNE 1024,7 10 0 0,0
17.09.2019 06:00:00 12,3 9,2 - - 13 7 NNE 1024,2 10 0 0,0
17.09.2019 05:00:00 14,0 11,2 - - 13 7 NNE 1023,9 30 0 0,0
17.09.2019 04:00:00 14,6 11,9 - - 16 9 N 1023,8 19 0 0,0
17.09.2019 03:00:00 15,5 13,5 - - 15 8 NNE 1023,5 18 0 0,0
17.09.2019 02:00:00 15,6 14,3 - - 8 4 N 1023,3 16 0 0,0
17.09.2019 01:00:00 15,7 14,4 - - 8 4 NE 1023,2 20 - 0,0
17.09.2019 00:00:00 16,0 14,6 - - 15 8 NE 1023,3 22 0 0,0
16.09.2019 23:00:00 17,7 15,7 - - 11 6 NNE 1023,1 10 0 0,0
16.09.2019 22:00:00 17,7 15,8 - - 5 3 NNE 1022,9 30 0 0,0
16.09.2019 21:00:00 18,1 15,9 - - 8 4 NNE 1022,4 30 0 0,0
16.09.2019 20:00:00 18,6 15,9 - - 15 8 N 1022,2 10 0 0,0
16.09.2019 19:00:00 20,0 15,6 - - 8 4 NW 1021,8 10 0 0,0
16.09.2019 18:00:00 20,4 15,7 - - 9 5 NW 1021,6 75 0 0,0
16.09.2019 17:00:00 20,4 15,7 - - 13 7 NNW 1021,8 10 0 0,0
16.09.2019 16:00:00 20,4 15,8 - - 15 8 NNW 1021,9 10 0 0,0
16.09.2019 15:00:00 20,1 15,8 - - 13 7 NW 1022,2 10 0 0,0
16.09.2019 14:00:00 19,6 15,2 - - 18 10 NW 1022,5 55 0 0,0
16.09.2019 13:00:00 19,0 15,3 - - 15 8 NW 1022,6 35 0 0,0
16.09.2019 12:00:00 19,2 15,7 - - 15 8 NW 1022,8 55 0 0,0
16.09.2019 11:00:00 18,9 15,3 - - 13 7 NW 1022,9 10 12 0,0
16.09.2019 10:00:00 18,1 15,6 16,9 15,9 9 5 W 1022,8 10 12 0,0
16.09.2019 09:00:00 16,6 15,1 - - 11 6 WNW 1022,6 10 0 0,0
16.09.2019 08:00:00 15,7 14,6 - - 8 4 WNW 1022,1 10 0 0,0
16.09.2019 07:00:00 15,5 14,4 - - 8 4 NW 1022,0 30 0 0,0
16.09.2019 06:00:00 15,5 14,4 - - 11 6 NW 1021,8 10 0 0,0
16.09.2019 05:00:00 15,4 14,0 - - 13 7 NW 1022,0 55 0 0,0
16.09.2019 04:00:00 15,3 14,1 - - 18 10 NNW 1022,5 65 0 0,0
16.09.2019 03:00:00 15,2 14,8 - - 9 5 NW 1022,6 30 0 0,0
16.09.2019 02:00:00 12,8 12,3 - - 8 4 NW 1023,2 11 0 0,0
16.09.2019 01:00:00 14,0 13,4 - - 8 4 NW 1023,3 8 - 0,0
16.09.2019 00:00:00 14,3 13,4 - - 4 2 W 1023,6 8 0 0,0
15.09.2019 23:00:00 15,2 13,8 - - 9 5 WNW 1023,8 11 0 0,0
15.09.2019 22:00:00 16,3 14,3 - - 11 6 WNW 1023,9 10 0 0,0
15.09.2019 21:00:00 16,9 14,5 - - 8 4 WSW 1023,7 10 0 0,0
15.09.2019 20:00:00 17,1 14,1 - - 9 5 W 1023,5 10 0 0,0
15.09.2019 19:00:00 20,2 15,1 - - 8 4 WSW 1023,1 10 60 0,0
15.09.2019 18:00:00 22,6 15,4 - - 11 6 W 1023,0 15 60 0,0
15.09.2019 17:00:00 24,1 15,4 - - 13 7 NW 1023,1 10 54 0,0
15.09.2019 16:00:00 23,4 15,7 - - 13 7 S 1023,6 10 60 0,0
15.09.2019 15:00:00 22,3 14,9 - - 16 9 S 1024,1 10 60 0,0
15.09.2019 14:00:00 23,5 14,3 - - 4 2 - 1024,7 10 60 0,0
15.09.2019 13:00:00 22,3 13,7 - - 8 4 - 1025,2 10 60 0,0
15.09.2019 12:00:00 20,1 12,7 - - 8 4 - 1025,7 10 60 0,0
15.09.2019 11:00:00 18,8 14,0 - - 15 8 NW 1026,1 45 60 0,0
15.09.2019 10:00:00 15,7 12,8 16,5 15,9 9 5 WNW 1026,4 35 60 0,0
15.09.2019 09:00:00 11,3 11,1 - - 4 2 NW 1026,4 16 60 0,0
15.09.2019 08:00:00 7,3 6,9 - - 4 2 NNW 1026,4 10 12 0,0
15.09.2019 07:00:00 5,2 4,5 - - 4 2 N 1026,4 3,0 0 0,0
15.09.2019 06:00:00 5,0 4,1 - - 5 3 N 1026,4 9 0 0,0
15.09.2019 05:00:00 5,6 4,6 - - 4 2 N 1026,4 24 0 0,0
15.09.2019 04:00:00 6,8 5,9 - - 0 0 N 1026,7 15 0 0,0
15.09.2019 03:00:00 7,4 6,6 - - 2 1 N 1027,0 15 0 0,0
15.09.2019 02:00:00 8,9 8,5 - - 2 1 N 1027,4 13 0 0,0
15.09.2019 01:00:00 9,8 9,4 - - 4 2 NNW 1027,8 13 - 0,0
15.09.2019 00:00:00 9,4 8,8 - - 4 2 N 1028,1 5 0 0,0
14.09.2019 23:00:00 10,1 9,2 - - 2 1 NNW 1028,5 30 0 0,0
14.09.2019 22:00:00 11,3 10,1 - - 2 1 NNW 1028,8 10 0 0,0
14.09.2019 21:00:00 13,2 11,7 - - 2 1 WNW 1029,0 10 0 0,0
14.09.2019 20:00:00 14,9 11,9 - - 4 2 WNW 1029,1 35 18 0,0
14.09.2019 19:00:00 17,4 12,9 - - 8 4 S 1029,0 10 60 0,0
14.09.2019 18:00:00 18,5 13,0 - - 11 6 S 1029,2 40 60 0,0
14.09.2019 17:00:00 20,0 12,7 - - 15 8 SSE 1029,6 45 60 0,0
14.09.2019 16:00:00 21,1 12,8 - - 9 5 S 1029,9 10 60 0,0
14.09.2019 15:00:00 21,1 12,4 - - 9 5 S 1030,7 40 60 0,0
14.09.2019 14:00:00 20,6 13,5 - - 11 6 S 1031,4 10 60 0,0
14.09.2019 13:00:00 20,1 9,6 - - 8 4 S 1032,1 60 60 0,0
14.09.2019 12:00:00 19,5 11,4 - - 5 3 - 1032,9 10 60 0,0
14.09.2019 11:00:00 18,0 11,8 - - 11 6 ESE 1033,3 10 60 0,0
14.09.2019 10:00:00 16,3 12,9 16,7 15,9 9 5 ENE 1033,7 10 60 0,0
14.09.2019 09:00:00 12,8 12,3 - - 4 2 - 1034,0 10 60 0,0
14.09.2019 08:00:00 7,9 7,5 - - 5 3 - 1034,2 10 24 0,0
14.09.2019 07:00:00 5,7 5,2 - - 0 0 N 1034,1 8 0 0,0
14.09.2019 06:00:00 5,8 4,9 - - 4 2 NNE 1034,1 35 0 0,0
14.09.2019 05:00:00 6,6 6,1 - - 4 2 NW 1034,6 30 0 0,0
14.09.2019 04:00:00 7,0 6,3 - - 2 1 N 1034,9 11 0 0,0

tt = Température de l'air
td = dewpoint
tt -20cm = Température de l'air -20cm
tt -100cm = Température de l'air -100cm
ff = Vitesse du vent
dd = Direction du vent
ppp = reduced air pressure
vv = visibility
sd = Ensoleillement
rr = Quantités de précipitations

stations d'obs. à proximité